Helicity
54 139 138 152 164 157 154 159 181 23 21 89 153 83 12 0 12 58 69 167 197 125 106 140 90 142 180 202 239 237 216 200 220 221 289 261 246 197 152 123 154 160 146 138
88 87 99 222 202 167 118 135 159 -28 161 89 81 91 -3 18 46 57 65 125 214 152 117 144 168 159 197 238 268 279 280 285 277 228 238 259 294 220 232 205 166 146 165 158
94 85 145 189 159 144 128 129 123 126 80 113 74 75 25 21 38 65 65 86 133 187 182 177 215 219 233 267 284 314 369 360 313 292 284 255 254 242 227 181 179 116 134 160
40 11 31 97 107 147 106 189 171 104 93 118 173 39 46 32 44 67 111 98 120 175 199 227 225 240 248 277 319 343 405 431 349 379 355 310 290 277 190 247 255 193 152 144
78 17 45 92 86 96 -73 6 211 126 106 55 149 177 -80 -39 40 104 131 72 85 161 196 189 225 253 180 214 342 405 467 447 436 443 426 374 293 214 246 278 281 255 197 162
4 27 39 52 117 103 53 -132 101 230 220 87 83 304 64 66 54 91 114 112 75 109 171 200 215 217 194 164 255 409 484 507 490 458 432 406 317 295 317 292 306 299 289 242
74 -7 48 24 78 149 118 106 63 100 238 145 40 351 124 112 80 101 130 140 123 126 118 136 124 206 207 188 210 351 460 497 517 489 479 440 365 379 353 379 356 349 337 312
5 59 -1 11 9 52 80 123 128 195 186 265 105 331 -6 190 189 99 148 145 142 199 178 140 131 175 241 233 234 361 416 482 533 521 497 467 470 486 431 379 366 354 362 369
-10 45 56 13 -29 20 9 189 21 18 -20 169 218 403 98 126 110 215 188 160 145 141 219 188 172 190 261 216 267 345 412 448 548 580 557 519 526 507 496 428 428 372 334 327
-2 46 -8 46 28 -23 54 109 86 185 -119 91 209 114 70 302 189 165 189 229 215 219 218 225 211 177 218 264 313 334 413 451 525 569 580 598 624 587 567 559 463 422 362 392
57 -20 41 -18 -24 53 104 30 19 218 259 -75 13 259 253 200 204 120 172 226 139 183 194 169 135 126 99 195 237 245 312 343 410 511 520 540 638 605 600 576 501 451 416 427
44 -4 -15 42 -36 -15 125 9 89 24 130 133 309 147 145 231 250 340 366 406 305 150 101 101 36 37 102 118 177 210 271 341 378 461 508 534 571 617 673 591 542 506 436 462
16 -1 -26 -51 -77 -106 -57 73 104 163 121 32 113 185 48 135 291 297 472 436 407 409 335 197 34 70 21 118 159 196 221 243 295 405 387 430 481 597 650 595 583 547 496 451
39 13 -11 -55 -52 -34 -75 17 54 118 205 256 7 194 140 288 365 315 286 368 477 508 469 357 322 96 -43 -1 24 140 184 250 321 428 417 446 503 570 611 582 601 568 532 495
-1 -34 -20 23 12 -3 3 -14 40 108 201 262 336 169 172 125 161 261 313 368 392 473 552 654 628 539 331 140 -47 12 168 218 282 387 451 461 515 608 597 566 572 535 511 473
49 -10 9 -42 -25 -64 17 67 -5 -26 99 188 183 63 -17 55 108 113 202 295 311 378 543 783 824 864 874 530 104 -46 55 180 360 410 438 441 502 526 505 495 512 515 456 454
59 64 31 -47 -10 -37 -3 -42 -24 -58 13 143 306 150 218 205 127 163 175 101 289 386 420 678 857 946 1005 977 549 135 38 186 295 373 455 388 422 445 445 417 446 449 427 403
50 129 81 55 -38 -19 -36 50 64 18 40 77 147 203 151 186 127 185 171 122 7 73 381 609 831 1067 1147 1121 1012 560 350 290 241 259 324 349 341 336 355 384 392 366 398 416
144 123 107 75 -1 -25 -21 91 85 82 59 -13 16 57 86 127 132 196 169 93 53 -61 41 209 427 769 874 859 1052 608 377 242 178 161 193 237 283 315 321 304 336 397 422 415
50 80 97 60 33 -35 17 1 -10 65 44 154 48 18 0 -8 212 164 51 188 152 110 -134 28 22 206 379 501 727 695 470 300 192 107 120 178 228 226 248 281 315 360 353 369
49 39 21 37 32 -21 19 23 2 37 65 255 119 35 9 -57 -11 8 -46 -68 69 127 41 -123 128 126 223 366 459 590 458 382 344 344 218 194 186 230 300 348 349 373 396 407
53 48 3 8 8 -3 34 4 40 73 278 127 157 22 35 2 40 19 -52 -54 -52 -75 -57 -130 -133 -39 -134 132 315 547 444 450 230 182 214 203 195 244 242 264 293 333 380 411
30 54 44 30 -6 -2 14 -55 -55 -24 80 102 81 93 33 29 26 41 40 38 6 -38 -58 -114 -103 -138 -354 -384 -89 162 383 282 324 171 136 177 191 164 180 200 218 253 271 281
-3 13 -14 35 98 36 19 2 11 -75 61 101 73 45 56 30 39 49 57 53 39 28 3 -4 -62 -136 -84 -34 -69 -83 34 331 142 248 121 85 120 153 161 164 184 220 246 276
48 38 39 35 50 4 -11 22 60 28 51 4 46 43 64 55 54 36 48 62 48 30 34 3 -3 33 15 -56 -17 15 27 -39 5 -2 91 68 98 121 157 174 175 187 196 254
116 50 62 50 22 -27 -27 48 -5 11 12 32 15 24 29 9 8 11 9 5 2 8 -3 -15 -8 12 19 44 21 -7 34 14 28 24 21 26 37 57 117 178 215 270 162 202
Wind_Speed
68 81 103 107 102 115 118 125 134 156 99 105 122 134 131 107 101 99 89 76 66 59 49 50 48 41 33 31 31 36 35 34 33 29 31 32 36 35 34 33 33 31 29 26
76 104 96 95 101 110 119 128 145 156 110 106 124 129 137 124 116 108 104 89 76 64 61 53 50 48 45 39 41 38 40 36 39 34 32 26 28 33 37 41 40 35 33 30
85 89 82 94 108 120 119 126 144 149 117 114 119 125 132 117 132 111 110 109 86 74 65 59 60 56 49 47 44 44 44 43 41 33 26 29 27 33 31 33 35 38 35 33
74 75 85 94 109 112 129 114 128 145 132 145 107 160 140 125 127 110 118 114 113 86 74 64 60 62 60 53 48 48 45 45 43 36 31 34 35 31 38 31 33 36 37 35
74 76 76 89 105 94 132 106 111 124 134 136 141 128 134 127 140 126 120 128 118 100 86 75 65 59 55 55 52 50 49 47 45 46 42 39 35 32 29 29 31 35 37 37
81 77 77 83 84 85 88 105 109 105 117 156 152 133 149 129 126 139 134 125 120 108 94 87 72 62 58 56 56 53 53 54 49 49 49 47 45 33 28 29 33 34 36 38
75 63 58 63 81 85 92 101 118 120 129 153 140 136 163 117 122 126 131 122 120 111 107 100 91 71 66 62 60 56 56 56 55 55 53 55 52 42 39 33 31 31 36 39
61 64 47 44 61 73 85 104 120 116 106 134 128 139 191 144 106 119 115 125 118 106 107 106 102 86 76 69 63 60 62 60 57 59 59 56 52 49 45 41 36 36 35 38
60 58 55 68 65 64 72 96 111 128 91 97 118 110 134 129 140 119 106 105 122 123 105 105 102 98 81 74 68 65 61 61 62 65 61 60 56 54 53 48 45 42 39 39
54 69 58 59 62 54 71 62 86 94 130 108 86 123 161 117 123 130 136 101 97 100 104 105 105 104 91 80 68 63 62 61 62 64 64 62 61 60 56 52 49 45 42 39
57 56 66 61 46 54 58 88 72 80 100 106 80 83 96 102 106 114 118 121 102 98 94 91 85 86 85 74 69 67 66 66 62 60 64 67 65 64 63 58 54 51 48 43
52 60 68 70 51 48 46 54 68 77 78 68 84 68 26 49 62 72 73 86 96 94 97 95 92 90 81 80 73 72 71 73 70 69 68 71 70 67 67 63 58 54 52 48
56 56 68 63 49 49 53 58 64 72 73 88 75 77 47 37 37 45 62 61 66 77 90 94 91 94 98 93 84 75 71 70 68 68 70 71 70 73 72 69 62 57 54 52
56 60 65 70 67 63 62 66 68 66 78 81 83 78 59 56 56 47 46 48 55 61 69 73 82 93 93 100 100 85 80 74 71 70 70 69 71 73 71 68 65 61 57 55
55 63 57 68 70 70 71 73 71 75 78 85 76 73 74 63 54 57 53 50 50 51 54 58 67 72 82 95 97 97 88 80 72 69 69 69 70 73 71 68 66 63 59 56
65 62 76 69 67 62 75 81 76 71 73 77 80 73 50 56 59 59 57 56 54 54 54 54 57 62 71 79 82 81 85 83 71 74 75 70 71 72 69 65 63 61 58 56
66 58 66 75 62 72 65 49 48 47 49 66 77 73 67 69 66 65 65 54 53 54 52 47 49 52 58 62 65 65 67 66 69 72 73 70 67 61 57 56 57 58 57 53
43 56 62 78 69 65 51 67 56 58 57 59 64 68 65 65 63 68 63 58 53 52 48 51 54 53 53 56 58 58 52 49 52 59 62 62 61 59 53 50 50 53 53 53
32 39 50 60 65 72 53 38 47 50 48 43 56 61 57 55 57 62 59 56 54 51 48 48 47 49 54 55 53 49 43 42 40 44 50 52 52 50 49 48 48 48 50 51
22 26 36 47 57 58 47 56 61 53 40 45 42 39 53 53 54 54 49 55 53 52 46 53 43 44 51 51 49 42 40 42 40 41 44 46 47 48 49 47 46 50 49 51
40 33 35 42 53 55 53 63 57 47 48 60 51 44 42 42 53 57 41 44 51 53 52 49 59 52 55 52 47 36 34 44 48 48 41 38 42 45 45 45 45 46 46 47
45 41 39 39 52 57 46 50 46 55 62 57 58 47 48 47 46 41 49 52 46 51 52 47 43 54 56 53 52 53 48 46 44 46 44 40 37 33 31 33 36 37 38 39
43 36 41 46 57 69 67 61 57 55 60 58 60 61 54 48 47 46 47 46 47 50 50 52 48 44 51 48 52 56 56 49 46 44 48 45 42 35 28 28 31 35 36 36
47 42 51 60 61 70 70 70 63 58 62 65 58 51 51 54 53 53 54 55 55 53 50 47 52 53 50 53 59 50 58 54 54 58 49 47 47 46 34 34 34 38 37 38
71 68 65 73 76 66 58 62 59 64 65 52 51 49 51 54 57 58 60 62 64 64 63 59 58 57 57 66 68 70 59 53 58 61 65 55 48 50 44 45 43 45 46 40
58 71 65 73 69 67 69 67 66 55 51 53 54 57 58 59 62 65 68 68 69 71 71 69 66 67 68 66 69 72 65 63 63 61 53 53 57 49 47 47 49 48 51 46
Wind_Direction
278 266 257 254 252 253 253 249 248 245 252 247 246 246 246 247 249 248 249 250 247 242 235 234 232 228 223 209 197 187 188 187 189 192 196 199 199 202 212 218 229 231 228 222
277 264 265 265 256 254 252 247 247 247 252 248 246 247 247 247 247 247 247 250 248 245 243 237 228 229 231 214 200 198 195 193 189 193 196 224 222 236 239 246 246 235 232 229
275 270 275 266 255 251 251 249 246 245 249 252 249 250 246 246 244 247 247 247 250 245 242 239 238 235 231 230 218 207 201 199 197 199 220 250 246 255 238 221 224 218 227 226
282 280 272 264 257 251 250 250 250 245 246 244 246 246 244 243 243 243 243 244 245 247 245 242 236 239 239 230 225 217 215 208 209 209 216 207 202 215 205 223 234 232 233 234
287 283 275 265 259 257 249 251 253 248 246 246 243 247 244 242 240 241 241 241 242 245 246 246 244 237 231 230 234 223 227 223 219 214 213 211 213 217 247 237 235 235 237 233
286 291 276 270 267 262 254 248 250 254 248 242 239 242 243 239 237 237 240 241 242 245 247 249 248 245 241 238 236 234 226 226 223 215 213 212 210 220 232 231 230 232 235 231
301 303 291 275 266 261 252 244 242 247 242 240 239 239 241 241 239 240 240 242 243 245 247 248 250 250 251 246 239 237 227 225 221 218 216 212 214 221 222 225 232 238 239 235
305 301 306 296 270 264 253 238 235 241 250 241 239 238 239 241 245 244 245 244 245 247 247 248 251 253 253 251 243 237 235 230 227 227 223 221 223 232 233 234 239 242 241 235
308 301 308 287 279 266 256 244 237 241 258 252 242 240 246 243 242 245 246 245 244 245 247 249 252 255 255 253 247 239 238 233 231 232 224 231 233 234 238 237 241 245 250 257
311 293 302 300 294 267 256 258 237 238 241 250 250 232 238 239 241 241 242 247 247 247 248 251 254 255 255 254 251 240 236 232 230 231 232 233 234 231 236 241 240 241 246 253
310 294 294 301 293 288 270 245 249 242 240 243 252 245 244 246 246 246 246 247 251 251 251 253 256 258 256 256 251 247 245 242 240 235 232 236 237 239 243 242 242 240 249 250
307 289 288 284 289 298 286 267 252 248 241 247 245 246 272 256 255 253 254 253 252 255 255 257 258 260 260 258 256 255 254 251 249 247 240 238 239 242 242 243 242 244 243 248
307 289 284 288 284 295 290 277 265 267 250 240 242 241 266 279 276 269 259 262 260 259 259 259 260 262 261 260 259 258 258 255 254 251 245 244 242 244 244 244 244 244 244 248
308 291 276 274 275 283 282 280 270 267 247 251 246 251 256 272 266 270 270 271 268 266 265 264 263 264 265 260 260 259 257 256 255 253 246 241 240 242 243 244 245 246 245 249
313 285 284 276 272 274 277 280 274 267 259 248 250 257 258 266 268 266 270 275 274 274 275 273 270 273 271 265 264 261 259 257 251 250 247 243 243 247 249 249 248 249 249 249
299 286 281 273 275 276 281 280 275 265 259 257 255 257 269 270 272 270 270 273 277 275 276 279 281 283 278 271 265 262 259 256 252 250 248 248 248 249 249 249 248 249 249 251
291 294 286 270 280 284 282 287 288 281 277 260 254 254 267 270 268 270 272 280 282 278 277 286 289 291 291 281 271 266 260 258 254 251 249 248 249 248 247 248 249 249 248 250
273 290 288 269 280 272 277 284 277 269 271 269 264 261 264 269 272 272 275 275 276 285 281 286 291 296 297 294 280 267 263 258 254 251 249 247 248 249 249 247 246 248 251 250
269 284 291 279 275 274 280 270 294 285 275 283 274 263 267 268 278 275 277 275 272 286 290 283 296 301 296 295 292 270 267 258 253 253 251 250 249 248 250 250 250 252 253 255
299 276 285 290 278 272 272 284 300 279 270 301 310 292 265 263 272 279 283 275 276 279 287 273 294 299 295 297 297 281 273 265 260 259 258 258 258 255 255 255 253 255 255 254
294 294 287 291 281 277 289 292 296 262 275 290 296 299 294 277 277 283 282 286 276 276 278 281 270 284 286 290 290 292 285 269 266 265 267 268 264 262 262 260 259 256 256 256
285 283 286 293 278 277 299 303 272 284 291 291 288 290 291 286 290 294 278 276 285 277 271 274 287 278 289 292 289 281 279 286 277 268 269 269 270 269 269 263 260 256 254 256
291 288 288 285 277 264 267 275 286 302 295 298 293 290 292 294 291 294 293 294 294 283 287 275 282 285 279 287 292 279 281 282 284 280 268 266 266 270 270 268 264 261 259 256
292 288 288 290 281 272 269 276 277 289 292 297 303 301 302 296 300 300 302 300 297 297 298 297 283 276 277 275 273 284 279 281 283 274 276 271 266 266 271 271 269 265 264 262
279 282 286 281 277 274 281 289 285 282 282 300 308 313 311 307 303 302 300 299 297 295 297 298 289 292 285 269 266 269 280 284 287 280 272 272 273 270 268 269 269 269 269 263
295 278 282 276 275 270 277 286 286 296 292 300 302 302 308 310 304 303 300 298 295 294 295 296 296 289 285 282 276 270 277 277 276 279 282 276 268 269 268 269 271 274 272 270